Regional Weather Roundup
Issued by NWS

Home | Current Version | Previous Version | Text Only | Print | Product List | Glossary On
Versions: 1 2 3 4 5 6 7 8 9 10 11 12 13 14 15 16 17 18 19 20 21 22 23 24 25 26 27 28 29 30 31 32 33 34 35 36 37 38 39 40 41 42 43 44 45 46 47 48 49 50
000
ASUS43 KMKX 291421
RWRWI

WISCONSIN REGIONAL WEATHER ROUNDUP
NATIONAL WEATHER SERVICE MILWAUKEE/SULLIVAN WI
900 AM CDT FRI APR 29 2016

NOTE: "FAIR" INDICATES FEW OR NO CLOUDS BELOW 12,000 FEET WITH NO
SIGNIFICANT WEATHER AND/OR OBSTRUCTIONS TO VISIBILITY.

WIZ001-002-006>008-014>016-023>028-291500-
NORTHWEST WISCONSIN

CITY           SKY/WX    TMP DP  RH WIND       PRES   REMARKS
SUPERIOR ARPT  SUNNY     42  30  61 NE5       30.21S
ASHLAND        SUNNY     42  33  70 NE6       30.20R
HAYWARD        SUNNY     41  29  62 NE5       30.18R
SIREN          SUNNY     42  29  58 E5        30.19S
CUMBERLAND     SUNNY     37  30  75 N3        30.17R
RICE LAKE      SUNNY     40  31  68 NW5       30.18S
CHETEK         SUNNY     41  31  68 NW3       30.17R
LADYSMITH      SUNNY     45  33  62 CALM      30.17R
EAU CLAIRE     CLOUDY    44  38  79 W7        30.17S
MENOMONIE      PTSUNNY   42  42  99 NW7       30.18S
NEW RICHMOND   PTSUNNY   40  38  93 W5        30.19S
OSCEOLA        MOSUNNY   40  38  93 SW3       30.22S
$$

WIZ003>005-009-010-017-018-291500-
NORTH CENTRAL WISCONSIN

CITY           SKY/WX    TMP DP  RH WIND       PRES   REMARKS
MANITOWISH WTR MOSUNNY   42  34  72 CALM      30.14S
ARBOR VITAE    PTSUNNY   43  35  72 N3        30.14S
WOODRUFF       PTSUNNY   43  35  72 N3        30.14S
RHINELANDER    CLOUDY    44  37  76 VRB7      30.14S
EAGLE RIVER    MOSUNNY   42  32  67 NE6       30.14S
LAND O LAKES   CLOUDY    42  34  71 CALM      30.15S
PHILLIPS       CLOUDY    43  36  75 NW6       30.14S
TOMAHAWK       PTSUNNY   42  37  80 N3        30.15S
MEDFORD        CLOUDY    40  37  90 N7        30.14R
MERRILL        CLOUDY    42  37  82 N3        30.15S
$$

WIZ029-030-035-036-043>047-291500-
CENTRAL WISCONSIN

CITY           SKY/WX    TMP DP  RH WIND       PRES   REMARKS
WAUSAU         CLOUDY    44  36  73 NE7       30.12F
MOSINEE        CLOUDY    41  37  87 N9        30.14F
MARSHFIELD     CLOUDY    44  37  76 NE8       30.13S
STEVENS POINT  CLOUDY    40  36  84 N7        30.13F
WAUPACA        CLOUDY    46  35  66 NE10      30.12F
WAUTOMA        NOT AVBL
WISC RAPIDS    CLOUDY    44  36  73 NE10      30.14F
CAMP DOUGLAS   CLOUDY    43  43 100 N9        30.14R
$$

WIZ011>013-019>022-031-037>040-048>050-291500-
NORTHEAST WISCONSIN

CITY           SKY/WX    TMP DP  RH WIND       PRES   REMARKS
ANTIGO         CLOUDY    41  37  85 N6        30.14S
SHAWANO        CLOUDY    46  36  66 NE8       30.14S
OCONTO         CLOUDY    43  32  65 NE6       30.14S
STURGEON BAY   CLOUDY    43  30  61 NE9       30.16F
GREEN BAY      CLOUDY    45  35  68 NE14      30.13F
MANITOWOC      CLOUDY    43  38  82 N3        30.13S
APPLETON       CLOUDY    43  32  65 N12       30.11S
CLINTONVILLE   CLOUDY    43  32  65 NE10      30.14R
OSHKOSH        CLOUDY    43  34  70 NE10      30.11F
$$

WIZ032>034-041-042-053>061-291500-
SOUTHWEST WISCONSIN

CITY           SKY/WX    TMP DP  RH WIND       PRES   REMARKS
LA CROSSE      CLOUDY    44  37  76 N9        30.16R
SPARTA         CLOUDY    41  38  91 NW7       30.17R
VIROQUA        CLOUDY    41  38  91 N8        30.13R
BOSCOBEL       CLOUDY    45  39  79 NE6       30.14R
PRAIRIE DU CHI CLOUDY    42  35  74 N7        30.13S
PLATTEVILLE    CLOUDY    41  40  95 N9        30.09S
$$

WIZ056-057-062-063-064-067-068-291500-
SOUTH CENTRAL WISCONSIN

CITY           SKY/WX    TMP DP  RH WIND       PRES   REMARKS
REEDSBURG      CLOUDY    41  37  86 NE8       30.11F
BARABOO/DELLS  CLOUDY    42  38  85 N8        30.11S
LONE ROCK      CLOUDY    44  37  76 N8        30.13R
MINERAL POINT  CLOUDY    43  37  81 N9        30.09S
MADISON        PTSUNNY   43  38  82 NE9       30.11R
MIDDLETON      CLOUDY    43  39  85 N7        30.10F
WATERTOWN      CLOUDY    42  39  90 N9        30.09F
MONROE         CLOUDY    43  37  81 N10       30.07F
JANESVILLE     PTSUNNY   45  39  81 N7        30.08F
$$

WIZ051-052-058>065-066-070>072-291500-
SOUTHEAST WISCONSIN

CITY           SKY/WX    TMP DP  RH WIND       PRES   REMARKS
MILWAUKEE      CLOUDY    41  37  86 NE8       30.10S
WAUKESHA       CLOUDY    39  37  93 N6        30.10F WCI  35
MILWAUKEE/TIMM CLOUDY    41  36  81 N9        30.11F
RACINE         CLOUDY    42  37  82 N14       30.10F
BURLINGTON     CLOUDY    42  38  87 N7        30.08F
KENOSHA        CLOUDY    43  38  82 N10       30.08F
FOND DU LAC    CLOUDY    43  35  73 NE10      30.11F
SHEBOYGAN      CLOUDY    41  36  82 N7        30.12S
WEST BEND      CLOUDY    39  36  87 NE8       30.10F WCI  34
JUNEAU         CLOUDY    41  37  86 N9        30.11F
$$

LSZ147-162-291500-
LAKE SUPERIOR

STATION/POSITION TIME  TEMP    WIND        PRES    WAVE
                       AIR SEA DIR/SP/G            HT/PER
                 (UTC) (F)     (DEG/KT/KT) (MB)    (FT/S)
W MID LAKE BUOY  1350   38 36   30/  8/ 10 1023.3R   1/ 4
DEVILS ISLAND    1400   38      40/  7/  8 1023.6R
SAXON HARBOR     1300   35     190/  2/  5 1021.7R
$$

LMZ867-665-643>646-291500-
LAKE MICHIGAN

STATION/POSITION TIME  TEMP    WIND        PRES    WAVE
                       AIR SEA DIR/SP/G            HT/PER
                 (UTC) (F)     (DEG/KT/KT) (MB)    (FT/S)
CHAMBERS ISLAND  1340   40      10/  8/ 10 1021.3R
N MID LAKE BUOY  1350   39 38   30/  8/ 10 1020.9S   0
NORTHPORT PIER   1300   41      70/  8/ 10 1020.7R
ALGOMA LAKESHORE 1315           60/ 12/ 14   N/A
KEWAUNEE LAKESHO 1300   41      20/  8/ 11 1019.4R
SHEBOYGAN LAKESH 1400   39      10/  9/ 10 1020.9S
PORT WASHINGTON  1300   41      30/  7/ 10 1020.7R
S MID LAKE BUOY  1350   40 40   30/  8/ 10 1018.9S   1/ 3
KENOSHA   LAKESH 1400   42      10/ 12/ 13 1018.6F
$$

TC  - TEMPERATURE IN CELSIUS
VSB - VISIBILITY IN STATUTE MILES
WCI - WIND CHILL INDEX
HX  - HEAT INDEX




USA.gov is the U.S. government's official web portal to all federal, state and local government web resources and services.